| time (UTC) | temp F | wind direction | speed MPH | gust MPH | rain 1hr in | rain 24hr in | rain mn in | humidity % | barometer mb |
| 20260905205104 | 73 | 326 | 3.0 | 6.0 | 0.00 | 0.00 | 0.00 | 79 | 1025.7 |
| 20260905204104 | 73 | 297 | 3.0 | 6.0 | 0.00 | 0.00 | 0.00 | 79 | 1025.8 |
| 20260905203124 | 73 | 308 | 3.0 | 4.0 | 0.00 | 0.00 | 0.00 | 79 | 1025.5 |
| 20260905202105 | 73 | 305 | 4.0 | 7.0 | 0.00 | 0.00 | 0.00 | 78 | 1025.8 |
| 20260905201124 | 73 | 306 | 4.0 | 6.0 | 0.00 | 0.00 | 0.00 | 78 | 1025.8 |
| 20260905200105 | 73 | 297 | 5.0 | 7.0 | 0.00 | 0.00 | 0.00 | 77 | 1025.9 |
| 20260905195124 | 74 | 305 | 5.0 | 7.0 | 0.00 | 0.00 | 0.00 | 76 | 1025.7 |
| 20260905194124 | 74 | 308 | 5.0 | 8.0 | 0.00 | 0.00 | 0.00 | 74 | 1025.6 |
| 20260905193104 | 74 | 305 | 5.0 | 8.0 | 0.00 | 0.00 | 0.00 | 74 | 1025.6 |
| 20260905192104 | 74 | 304 | 6.0 | 9.0 | 0.00 | 0.00 | 0.00 | 73 | 1025.6 |
| 20260905191104 | 75 | 319 | 5.0 | 10.0 | 0.00 | 0.00 | 0.00 | 71 | 1025.5 |
| 20260905190105 | 75 | 336 | 5.0 | 8.0 | 0.00 | 0.00 | 0.00 | 69 | 1025.5 |
| 20260905185124 | 76 | 321 | 5.0 | 8.0 | 0.00 | 0.00 | 0.00 | 66 | 1025.5 |
| 20260905184105 | 76 | 292 | 6.0 | 10.0 | 0.00 | 0.00 | 0.00 | 65 | 1025.1 |
| 20260905183104 | 77 | 303 | 5.0 | 7.0 | 0.00 | 0.00 | 0.00 | 64 | 1025.1 |
| 20260905182105 | 77 | 300 | 4.0 | 8.0 | 0.00 | 0.00 | 0.00 | 62 | 1025.2 |
| 20260905181104 | 78 | 291 | 4.0 | 7.0 | 0.00 | 0.00 | 0.00 | 60 | 1025.0 |
| 20260905180105 | 79 | 302 | 5.0 | 7.0 | 0.00 | 0.00 | 0.00 | 56 | 1024.9 |
| 20260905175105 | 79 | 296 | 5.0 | 9.0 | 0.00 | 0.00 | 0.00 | 54 | 1024.9 |
| 20260905174104 | 80 | 271 | 4.0 | 9.0 | 0.00 | 0.00 | 0.00 | 53 | 1024.7 |
| 20260905173104 | 80 | 286 | 3.0 | 6.0 | 0.00 | 0.00 | 0.00 | 53 | 1024.7 |
| 20260905172105 | 81 | 275 | 5.0 | 7.0 | 0.00 | 0.00 | 0.00 | 53 | 1024.6 |
| 20260905171105 | 81 | 291 | 5.0 | 8.0 | 0.00 | 0.00 | 0.00 | 52 | 1024.6 |
| 20260905170104 | 82 | 315 | 4.0 | 7.0 | 0.00 | 0.00 | 0.00 | 51 | 1024.6 |
| 20260905165104 | 82 | 317 | 5.0 | 9.0 | 0.00 | 0.00 | 0.00 | 52 | 1024.7 |
| 20260905164104 | 83 | 338 | 5.0 | 8.0 | 0.00 | 0.00 | 0.00 | 50 | 1024.6 |
| 20260905163104 | 83 | 314 | 6.0 | 9.0 | 0.00 | 0.00 | 0.00 | 49 | 1024.6 |
| 20260905162105 | 84 | 323 | 6.0 | 11.0 | 0.00 | 0.00 | 0.00 | 46 | 1024.6 |
| 20260905161105 | 84 | 260 | 4.0 | 8.0 | 0.00 | 0.00 | 0.00 | 45 | 1024.5 |
| 20260905160105 | 84 | 327 | 5.0 | 8.0 | 0.00 | 0.00 | 0.00 | 46 | 1024.6 |
| 20260905155105 | 84 | 298 | 5.0 | 10.0 | 0.00 | 0.00 | 0.00 | 48 | 1024.8 |
| 20260905154104 | 84 | 280 | 4.0 | 10.0 | 0.00 | 0.00 | 0.00 | 51 | 1024.7 |
| 20260905153124 | 84 | 306 | 2.0 | 9.0 | 0.00 | 0.00 | 0.00 | 50 | 1024.7 |
| 20260905152105 | 84 | 342 | 5.0 | 13.0 | 0.00 | 0.00 | 0.00 | 52 | 1024.8 |
| 20260905151104 | 84 | 308 | 6.0 | 14.0 | 0.00 | 0.00 | 0.00 | 52 | 1024.9 |
| 20260905150105 | 85 | 317 | 7.0 | 15.0 | 0.00 | 0.00 | 0.00 | 50 | 1024.7 |
| 20260905145105 | 85 | 302 | 7.0 | 15.0 | 0.00 | 0.00 | 0.00 | 49 | 1024.7 |
| 20260905144104 | 86 | 320 | 6.0 | 14.0 | 0.00 | 0.00 | 0.00 | 45 | 1024.9 |
| 20260905143104 | 87 | 309 | 4.0 | 13.0 | 0.00 | 0.00 | 0.00 | 44 | 1024.8 |
| 20260905142104 | 87 | 294 | 5.0 | 11.0 | 0.00 | 0.00 | 0.00 | 42 | 1024.8 |
| 20260905141104 | 87 | 350 | 6.0 | 16.0 | 0.00 | 0.00 | 0.00 | 41 | 1024.8 |
| 20260905140104 | 87 | 5 | 4.0 | 10.0 | 0.00 | 0.00 | 0.00 | 39 | 1024.7 |
| 20260905135104 | 88 | 72 | 3.0 | 8.0 | 0.00 | 0.00 | 0.00 | 38 | 1024.9 |
| 20260905134104 | 88 | 293 | 4.0 | 11.0 | 0.00 | 0.00 | 0.00 | 37 | 1024.9 |
| 20260905133104 | 88 | 293 | 6.0 | 10.0 | 0.00 | 0.00 | 0.00 | 35 | 1024.9 |
| 20260905132104 | 88 | 277 | 5.0 | 9.0 | 0.00 | 0.00 | 0.00 | 36 | 1025.1 |
| 20260905131104 | 88 | 321 | 5.0 | 10.0 | 0.00 | 0.00 | 0.00 | 36 | 1025.0 |
| 20260905130104 | 88 | 344 | 7.0 | 11.0 | 0.00 | 0.00 | 0.00 | 37 | 1025.2 |
| 20260905125104 | 88 | 233 | 5.0 | 10.0 | 0.00 | 0.00 | 0.00 | 37 | 1025.2 |
| 20260905124104 | 88 | 230 | 4.0 | 8.0 | 0.00 | 0.00 | 0.00 | 37 | 1025.1 |
| 20260905123127 | 88 | 335 | 2.0 | 9.0 | 0.00 | 0.00 | 0.00 | 35 | 1025.2 |
| 20260905122106 | 88 | 251 | 1.0 | 6.0 | 0.00 | 0.00 | 0.00 | 35 | 1025.3 |
| 20260905121105 | 88 | 332 | 3.0 | 17.0 | 0.00 | 0.00 | 0.00 | 35 | 1025.3 |
| 20260905120105 | 88 | 319 | 4.0 | 10.0 | 0.00 | 0.00 | 0.00 | 35 | 1025.5 |
| 20260905115105 | 89 | 226 | 0.0 | 6.0 | 0.00 | 0.00 | 0.00 | 34 | 1025.5 |
| 20260905114104 | 89 | 93 | 1.0 | 3.0 | 0.00 | 0.00 | 0.00 | 35 | 1025.4 |
| 20260905113104 | 89 | 143 | 0.0 | 1.0 | 0.00 | 0.00 | 0.00 | 34 | 1025.4 |
| 20260905112125 | 89 | 11 | 2.0 | 6.0 | 0.00 | 0.00 | 0.00 | 34 | 1025.6 |
| 20260905111125 | 88 | 289 | 1.0 | 4.0 | 0.00 | 0.00 | 0.00 | 33 | 1025.4 |
| 20260905110125 | 90 | 119 | 0.0 | 3.0 | 0.00 | 0.00 | 0.00 | 33 | 1025.4 |
| 20260905105104 | 91 | 173 | 1.0 | 3.0 | 0.00 | 0.00 | 0.00 | 31 | 1025.5 |
| 20260905104124 | 91 | 142 | 0.0 | 2.0 | 0.00 | 0.00 | 0.00 | 30 | 1025.5 |
| 20260905103104 | 91 | 158 | 0.0 | 2.0 | 0.00 | 0.00 | 0.00 | 30 | 1025.5 |
| 20260905102106 | 91 | 128 | 0.0 | 1.0 | 0.00 | 0.00 | 0.00 | 32 | 1025.6 |
| 20260905101105 | 91 | 166 | 1.0 | 4.0 | 0.00 | 0.00 | 0.00 | 32 | 1025.6 |
| 20260905100105 | 90 | 112 | 0.0 | 1.0 | 0.00 | 0.00 | 0.00 | 35 | 1025.8 |
| 20260905095106 | 89 | 84 | 0.0 | 2.0 | 0.00 | 0.00 | 0.00 | 35 | 1025.7 |
| 20260905094104 | 90 | 118 | 1.0 | 2.0 | 0.00 | 0.00 | 0.00 | 34 | 1025.8 |
| 20260905093124 | 90 | 143 | 1.0 | 3.0 | 0.00 | 0.00 | 0.00 | 31 | 1025.8 |
| 20260905092145 | 89 | 116 | 1.0 | 4.0 | 0.00 | 0.00 | 0.00 | 32 | 1025.8 |
| 20260905091105 | 88 | 137 | 0.0 | 3.0 | 0.00 | 0.00 | 0.00 | 35 | 1025.7 |
| 20260905090105 | 87 | 86 | 0.0 | 2.0 | 0.00 | 0.00 | 0.00 | 38 | 1025.7 |
| 20260905085124 | 88 | 166 | 0.0 | 2.0 | 0.00 | 0.00 | 0.00 | 37 | 1025.8 |
| 20260905084124 | 87 | 0.0 | 1.0 | 0.00 | 0.00 | 0.00 | 40 | 1025.6 | |
| 20260905083104 | 87 | 114 | 0.0 | 1.0 | 0.00 | 0.00 | 0.00 | 41 | 1025.7 |
| 20260905082105 | 87 | 128 | 0.0 | 1.0 | 0.00 | 0.00 | 0.00 | 40 | 1025.6 |
| 20260905081105 | 86 | 136 | 0.0 | 2.0 | 0.00 | 0.00 | 0.00 | 41 | 1025.4 |
| 20260905080105 | 86 | 0.0 | 1.0 | 0.00 | 0.00 | 0.00 | 40 | 1025.3 | |
| 20260905075105 | 85 | 125 | 0.0 | 2.0 | 0.00 | 0.00 | 0.00 | 40 | 1025.3 |
| 20260905074104 | 83 | 141 | 1.0 | 3.0 | 0.00 | 0.00 | 0.00 | 42 | 1025.4 |
| 20260905073104 | 81 | 127 | 0.0 | 3.0 | 0.00 | 0.00 | 0.00 | 43 | 1025.3 |
| 20260905072105 | 81 | 0.0 | 0.0 | 0.00 | 0.00 | 0.00 | 44 | 1025.5 | |
| 20260905071105 | 80 | 145 | 1.0 | 3.0 | 0.00 | 0.00 | 0.00 | 43 | 1025.4 |
| 20260905070104 | 80 | 142 | 2.0 | 3.0 | 0.00 | 0.00 | 0.00 | 45 | 1025.4 |
| 20260905065105 | 79 | 146 | 2.0 | 4.0 | 0.00 | 0.00 | 0.00 | 48 | 1025.3 |
| 20260905064144 | 78 | 148 | 2.0 | 4.0 | 0.00 | 0.00 | 0.00 | 50 | 1025.3 |
| 20260905063104 | 77 | 151 | 2.0 | 4.0 | 0.00 | 0.00 | 0.00 | 51 | 1025.1 |
| 20260905062104 | 78 | 148 | 1.0 | 4.0 | 0.00 | 0.00 | 0.00 | 49 | 1025.1 |
| 20260905061104 | 78 | 148 | 2.0 | 4.0 | 0.00 | 0.00 | 0.00 | 50 | 1025.0 |
| 20260905060104 | 78 | 149 | 3.0 | 6.0 | 0.00 | 0.00 | 0.00 | 50 | 1024.9 |
| 20260905055104 | 78 | 156 | 4.0 | 6.0 | 0.00 | 0.00 | 0.00 | 49 | 1024.9 |
| 20260905054104 | 78 | 140 | 2.0 | 3.0 | 0.00 | 0.00 | 0.00 | 46 | 1024.8 |
| 20260905053104 | 78 | 145 | 1.0 | 3.0 | 0.00 | 0.00 | 0.00 | 46 | 1024.8 |
| 20260905052105 | 77 | 0.0 | 0.0 | 0.00 | 0.00 | 0.00 | 47 | 1024.8 | |
| 20260905051105 | 77 | 0.0 | 0.0 | 0.00 | 0.00 | 0.00 | 46 | 1024.5 | |
| 20260905050225 | 76 | 0.0 | 0.0 | 0.00 | 0.00 | 0.00 | 47 | 1024.4 | |
| 20260905045106 | 76 | 0.0 | 0.0 | 0.00 | 0.00 | 0.00 | 49 | 1024.6 | |
| 20260905044104 | 76 | 0.0 | 0.0 | 0.00 | 0.00 | 0.00 | 51 | 1024.3 | |
| 20260905043104 | 78 | 0.0 | 0.0 | 0.00 | 0.00 | 0.00 | 49 | 1024.3 | |
| 20260905042105 | 77 | 0.0 | 0.0 | 0.00 | 0.00 | 0.00 | 49 | 1024.3 | |
| 20260905041125 | 76 | 0.0 | 0.0 | 0.00 | 0.00 | 0.00 | 51 | 1024.4 | |
| 20260905040104 | 77 | 0.0 | 0.0 | 0.00 | 0.00 | 0.00 | 51 | 1024.4 | |
| 20260905035104 | 78 | 0.0 | 0.0 | 0.00 | 0.00 | 0.00 | 50 | 1024.3 | |
| 20260905034109 | 80 | 0.0 | 0.0 | 0.00 | 0.00 | 0.00 | 47 | 1024.4 | |
| 20260905033104 | 80 | 0.0 | 0.0 | 0.00 | 0.00 | 0.00 | 47 | 1024.3 | |
| 20260905032105 | 80 | 0.0 | 0.0 | 0.00 | 0.00 | 0.00 | 47 | 1024.2 | |
| 20260905031105 | 80 | 0.0 | 0.0 | 0.00 | 0.00 | 0.00 | 47 | 1024.4 | |
| 20260905030107 | 80 | 0.0 | 0.0 | 0.00 | 0.00 | 0.00 | 46 | 1024.5 | |
| 20260905025105 | 80 | 0.0 | 1.0 | 0.00 | 0.00 | 0.00 | 46 | 1024.5 | |
| 20260905024104 | 80 | 152 | 0.0 | 2.0 | 0.00 | 0.00 | 0.00 | 46 | 1024.6 |
| 20260905023104 | 79 | 0.0 | 0.0 | 0.00 | 0.00 | 0.00 | 46 | 1024.4 | |
| 20260905022105 | 79 | 0.0 | 0.0 | 0.00 | 0.00 | 0.00 | 45 | 1024.4 | |
| 20260905021105 | 78 | 0.0 | 0.0 | 0.00 | 0.00 | 0.00 | 46 | 1024.5 | |
| 20260905020127 | 80 | 0.0 | 0.0 | 0.00 | 0.00 | 0.00 | 43 | 1024.6 | |
| 20260905015105 | 79 | 0.0 | 0.0 | 0.00 | 0.00 | 0.00 | 42 | 1024.4 | |
| 20260905014105 | 79 | 0.0 | 0.0 | 0.00 | 0.00 | 0.00 | 40 | 1024.6 | |
| 20260905013125 | 80 | 0.0 | 1.0 | 0.00 | 0.00 | 0.00 | 39 | 1024.8 | |
| 20260905012105 | 79 | 152 | 0.0 | 2.0 | 0.00 | 0.00 | 0.00 | 38 | 1024.9 |
| 20260905011125 | 79 | 0.0 | 0.0 | 0.00 | 0.00 | 0.00 | 38 | 1024.8 | |
| 20260905010104 | 80 | 0.0 | 0.0 | 0.00 | 0.00 | 0.00 | 33 | 1025.0 | |
| 20260905005104 | 79 | 0.0 | 0.0 | 0.00 | 0.00 | 0.00 | 34 | 1025.2 | |
| 20260905004104 | 79 | 0.0 | 0.0 | 0.00 | 0.00 | 0.00 | 33 | 1025.0 | |
| 20260905003124 | 79 | 0.0 | 1.0 | 0.00 | 0.00 | 0.00 | 32 | 1025.1 | |
| 20260905002106 | 80 | 0.0 | 1.0 | 0.00 | 0.00 | 0.00 | 31 | 1025.2 | |
| 20260905001105 | 80 | 314 | 1.0 | 3.0 | 0.00 | 0.00 | 0.00 | 31 | 1025.1 |
| 20260905000104 | 80 | 300 | 1.0 | 2.0 | 0.00 | 0.00 | 0.00 | 32 | 1025.3 |
| 20260904235106 | 79 | 274 | 1.0 | 2.0 | 0.00 | 0.00 | 0.00 | 35 | 1025.2 |
| 20260904234104 | 79 | 324 | 2.0 | 3.0 | 0.00 | 0.00 | 0.00 | 39 | 1025.4 |
| 20260904233104 | 78 | 306 | 1.0 | 2.0 | 0.00 | 0.00 | 0.00 | 42 | 1025.6 |
| 20260904232104 | 77 | 0.0 | 0.0 | 0.00 | 0.00 | 0.00 | 46 | 1025.5 | |
| 20260904231105 | 78 | 0.0 | 0.0 | 0.00 | 0.00 | 0.00 | 45 | 1025.6 | |
| 20260904230104 | 77 | 0.0 | 0.0 | 0.00 | 0.00 | 0.00 | 45 | 1025.6 | |
| 20260904225104 | 78 | 0.0 | 0.0 | 0.00 | 0.00 | 0.00 | 44 | 1025.5 | |
| 20260904224104 | 78 | 0.0 | 0.0 | 0.00 | 0.00 | 0.00 | 42 | 1025.5 | |
| 20260904223104 | 79 | 0.0 | 0.0 | 0.00 | 0.00 | 0.00 | 42 | 1025.3 | |
| 20260904222105 | 79 | 0.0 | 0.0 | 0.00 | 0.00 | 0.00 | 43 | 1025.4 | |
| 20260904221105 | 79 | 0.0 | 0.0 | 0.00 | 0.00 | 0.00 | 41 | 1025.4 | |
| 20260904220104 | 79 | 0.0 | 0.0 | 0.00 | 0.00 | 0.00 | 41 | 1025.4 | |
| 20260904215104 | 80 | 0.0 | 0.0 | 0.00 | 0.00 | 0.00 | 40 | 1025.4 | |
| 20260904214124 | 79 | 0.0 | 0.0 | 0.00 | 0.00 | 0.00 | 41 | 1025.5 | |
| 20260904213104 | 79 | 0.0 | 0.0 | 0.00 | 0.00 | 0.00 | 43 | 1025.3 | |
| 20260904212105 | 79 | 0.0 | 0.0 | 0.00 | 0.00 | 0.00 | 45 | 1025.6 | |
| 20260904211104 | 79 | 24 | 0.0 | 1.0 | 0.00 | 0.00 | 0.00 | 46 | 1025.5 |
| 20260904210105 | 79 | 289 | 1.0 | 1.0 | 0.00 | 0.00 | 0.00 | 47 | 1025.7 |